Time,TemperatureF,DewpointF,PressureIn,WindDirection,WindDirectionDegrees,WindSpeedMPH,WindSpeedGustMPH,Humidity,HourlyPrecipIn,Conditions,Clouds,dailyrainin,SoftwareType,DateUTC
2013-01-09 00:03:00,32.0,30.0,-100.00,ENE,70,0.0,2.0,94,-99.99,,,-99.99,,2013-01-09 05:03:00,
2013-01-09 00:12:00,32.0,31.0,-100.00,ESE,105,1.0,3.0,94,-99.99,,,-99.99,,2013-01-09 05:12:00,
2013-01-09 00:22:00,32.0,31.0,-100.00,East,95,1.0,4.0,94,-99.99,,,-99.99,,2013-01-09 05:22:00,
2013-01-09 00:33:00,32.0,31.0,-100.00,NNE,30,1.0,5.0,94,-99.99,,,-99.99,,2013-01-09 05:33:00,
2013-01-09 00:42:00,32.0,31.0,-100.00,NE,50,1.0,6.0,94,-99.99,,,-99.99,,2013-01-09 05:42:00,
2013-01-09 00:52:00,32.0,31.0,-100.00,NE,40,1.0,4.0,95,-99.99,,,-99.99,,2013-01-09 05:52:00,
2013-01-09 01:02:00,32.0,31.0,-100.00,ENE,65,1.0,4.0,95,-99.99,,,-99.99,,2013-01-09 06:02:00,
2013-01-09 01:12:00,32.0,31.0,-100.00,East,80,1.0,4.0,95,-99.99,,,-99.99,,2013-01-09 06:12:00,
2013-01-09 01:22:00,32.0,31.0,-100.00,East,100,2.0,6.0,95,-99.99,,,-99.99,,2013-01-09 06:22:00,
2013-01-09 01:32:00,32.0,31.0,-100.00,NE,45,1.0,6.0,95,-99.99,,,-99.99,,2013-01-09 06:32:00,
2013-01-09 01:42:00,32.0,31.0,-100.00,SE,140,1.0,6.0,95,-99.99,,,-99.99,,2013-01-09 06:42:00,
2013-01-09 01:52:00,32.0,31.0,-100.00,East,95,1.0,5.0,96,-99.99,,,-99.99,,2013-01-09 06:52:00,
2013-01-09 02:02:00,32.0,31.0,-100.00,ENE,65,2.0,4.0,96,-99.99,,,-99.99,,2013-01-09 07:02:00,
2013-01-09 02:12:00,32.0,31.0,-100.00,East,90,1.0,4.0,96,-99.99,,,-99.99,,2013-01-09 07:12:00,
2013-01-09 02:22:00,32.0,31.0,-100.00,East,95,2.0,6.0,96,-99.99,,,-99.99,,2013-01-09 07:22:00,
2013-01-09 02:32:00,32.0,31.0,-100.00,East,85,1.0,4.0,96,-99.99,,,-99.99,,2013-01-09 07:32:00,
2013-01-09 02:42:00,32.0,31.0,-100.00,ESE,115,2.0,4.0,96,-99.99,,,-99.99,,2013-01-09 07:42:00,
2013-01-09 02:52:00,32.0,31.0,-100.00,East,100,2.0,4.0,96,-99.99,,,-99.99,,2013-01-09 07:52:00,
2013-01-09 03:02:00,32.0,31.0,-100.00,East,100,2.0,6.0,96,-99.99,,,-99.99,,2013-01-09 08:02:00,
2013-01-09 03:12:00,32.0,31.0,-100.00,East,90,1.0,7.0,96,-99.99,,,-99.99,,2013-01-09 08:12:00,
2013-01-09 03:22:00,32.0,31.0,-100.00,East,80,1.0,6.0,96,-99.99,,,-99.99,,2013-01-09 08:22:00,
2013-01-09 03:32:00,32.0,31.0,-100.00,East,90,2.0,11.0,96,-99.99,,,-99.99,,2013-01-09 08:32:00,
2013-01-09 03:42:00,32.0,31.0,-100.00,East,80,2.0,6.0,96,-99.99,,,-99.99,,2013-01-09 08:42:00,
2013-01-09 03:52:00,32.0,31.0,-100.00,East,95,2.0,7.0,96,-99.99,,,-99.99,,2013-01-09 08:52:00,
2013-01-09 04:02:00,32.0,31.0,-100.00,SE,125,2.0,7.0,97,-99.99,,,-99.99,,2013-01-09 09:02:00,
2013-01-09 04:12:00,32.0,31.0,-100.00,East,95,2.0,7.0,97,-99.99,,,-99.99,,2013-01-09 09:12:00,
2013-01-09 04:22:00,32.0,31.0,-100.00,East,90,2.0,6.0,97,-99.99,,,-99.99,,2013-01-09 09:22:00,
2013-01-09 04:32:00,32.0,31.0,-100.00,SSE,150,2.0,6.0,97,-99.99,,,-99.99,,2013-01-09 09:32:00,
2013-01-09 04:42:00,32.0,31.0,-100.00,ENE,75,1.0,6.0,97,-99.99,,,-99.99,,2013-01-09 09:42:00,
2013-01-09 04:53:00,32.0,31.0,-100.00,ENE,60,2.0,4.0,97,-99.99,,,-99.99,,2013-01-09 09:53:00,
2013-01-09 05:02:00,32.0,32.0,-100.00,East,80,1.0,4.0,97,-99.99,,,-99.99,,2013-01-09 10:02:00,
2013-01-09 05:12:00,33.0,32.0,-100.00,ESE,120,2.0,7.0,97,-99.99,,,-99.99,,2013-01-09 10:12:00,
2013-01-09 05:22:00,33.0,33.0,-100.00,NE,40,1.0,6.0,97,-99.99,,,-99.99,,2013-01-09 10:22:00,
2013-01-09 05:32:00,34.0,33.0,-100.00,ENE,65,2.0,7.0,97,-99.99,,,-99.99,,2013-01-09 10:32:00,
2013-01-09 05:42:00,34.0,33.0,-100.00,ESE,105,1.0,6.0,97,-99.99,,,-99.99,,2013-01-09 10:42:00,
2013-01-09 05:52:00,34.0,33.0,-100.00,ENE,75,2.0,6.0,97,-99.99,,,-99.99,,2013-01-09 10:52:00,
2013-01-09 06:02:00,34.0,33.0,-100.00,East,90,1.0,7.0,97,-99.99,,,-99.99,,2013-01-09 11:02:00,
2013-01-09 06:12:00,34.0,34.0,-100.00,ENE,65,1.0,6.0,97,-99.99,,,-99.99,,2013-01-09 11:12:00,
2013-01-09 06:22:00,34.0,33.0,-100.00,ENE,65,2.0,6.0,96,-99.99,,,-99.99,,2013-01-09 11:22:00,
2013-01-09 06:33:00,35.0,34.0,-100.00,East,80,2.0,5.0,96,-99.99,,,-99.99,,2013-01-09 11:33:00,
2013-01-09 06:42:00,35.0,34.0,-100.00,ENE,60,2.0,6.0,96,-99.99,,,-99.99,,2013-01-09 11:42:00,
2013-01-09 06:52:00,35.0,35.0,-100.00,South,180,3.0,7.0,96,-99.99,,,-99.99,,2013-01-09 11:52:00,
2013-01-09 07:03:00,36.0,35.0,-100.00,South,180,4.0,7.0,96,-99.99,,,-99.99,,2013-01-09 12:03:00,
2013-01-09 07:12:00,36.0,35.0,-100.00,ENE,75,4.0,7.0,96,-99.99,,,-99.99,,2013-01-09 12:12:00,
2013-01-09 07:23:00,36.0,35.0,-100.00,East,85,4.0,7.0,96,-99.99,,,-99.99,,2013-01-09 12:23:00,
2013-01-09 07:33:00,37.0,35.0,-100.00,East,95,3.0,7.0,95,-99.99,,,-99.99,,2013-01-09 12:33:00,
2013-01-09 07:43:00,37.0,36.0,-100.00,East,100,3.0,7.0,95,-99.99,,,-99.99,,2013-01-09 12:43:00,
2013-01-09 07:52:00,38.0,37.0,-100.00,ENE,65,2.0,9.0,95,-99.99,,,-99.99,,2013-01-09 12:52:00,
2013-01-09 08:03:00,40.0,39.0,-100.00,South,190,7.0,16.0,95,-99.99,,,-99.99,,2013-01-09 13:03:00,
2013-01-09 08:12:00,43.0,41.0,-100.00,SSW,195,11.0,15.0,94,-99.99,,,-99.99,,2013-01-09 13:12:00,
2013-01-09 08:23:00,44.0,42.0,-100.00,SSW,195,10.0,14.0,93,-99.99,,,-99.99,,2013-01-09 13:23:00,
2013-01-09 08:33:00,44.0,42.0,-100.00,SSW,195,10.0,21.0,93,-99.99,,,-99.99,,2013-01-09 13:33:00,
2013-01-09 08:43:00,43.0,41.0,-100.00,SSW,195,11.0,17.0,93,-99.99,,,-99.99,,2013-01-09 13:43:00,
2013-01-09 08:52:00,43.0,41.0,-100.00,South,175,9.0,22.0,94,-99.99,,,-99.99,,2013-01-09 13:52:00,
2013-01-09 09:03:00,42.0,41.0,-100.00,South,180,4.0,12.0,94,-99.99,,,-99.99,,2013-01-09 14:03:00,
2013-01-09 09:12:00,42.0,41.0,-100.00,South,180,7.0,12.0,95,-99.99,,,-99.99,,2013-01-09 14:12:00,
2013-01-09 09:23:00,42.0,41.0,-100.00,South,185,7.0,13.0,95,-99.99,,,-99.99,,2013-01-09 14:23:00,
2013-01-09 09:33:00,43.0,42.0,-100.00,SSW,195,8.0,15.0,95,-99.99,,,-99.99,,2013-01-09 14:33:00,
2013-01-09 09:43:00,43.0,42.0,-100.00,South,185,9.0,12.0,95,-99.99,,,-99.99,,2013-01-09 14:43:00,
2013-01-09 09:53:00,43.0,42.0,-100.00,South,185,11.0,17.0,95,-99.99,,,-99.99,,2013-01-09 14:53:00,
2013-01-09 10:03:00,43.0,42.0,-100.00,South,185,9.0,15.0,95,-99.99,,,-99.99,,2013-01-09 15:03:00,
2013-01-09 10:12:00,43.0,42.0,-100.00,SSW,205,13.0,18.0,95,-99.99,,,-99.99,,2013-01-09 15:12:00,
2013-01-09 10:23:00,44.0,42.0,-100.00,South,185,10.0,18.0,95,-99.99,,,-99.99,,2013-01-09 15:23:00,
2013-01-09 10:33:00,44.0,43.0,-100.00,South,190,11.0,17.0,95,-99.99,,,-99.99,,2013-01-09 15:33:00,
2013-01-09 10:42:00,44.0,43.0,-100.00,South,190,12.0,17.0,95,-99.99,,,-99.99,,2013-01-09 15:42:00,
2013-01-09 10:53:00,45.0,44.0,-100.00,SSW,200,13.0,18.0,95,-99.99,,,-99.99,,2013-01-09 15:53:00,
2013-01-09 11:03:00,45.0,44.0,-100.00,SW,215,12.0,20.0,95,-99.99,,,-99.99,,2013-01-09 16:03:00,
2013-01-09 11:12:00,46.0,45.0,-100.00,SSW,205,16.0,22.0,95,-99.99,,,-99.99,,2013-01-09 16:12:00,
2013-01-09 11:23:00,46.0,45.0,-100.00,SW,220,16.0,24.0,94,-99.99,,,-99.99,,2013-01-09 16:23:00,
2013-01-09 11:33:00,47.0,45.0,-100.00,SW,225,12.0,27.0,93,-99.99,,,-99.99,,2013-01-09 16:33:00,
2013-01-09 11:43:00,47.0,45.0,-100.00,SW,225,14.0,27.0,92,-99.99,,,-99.99,,2013-01-09 16:43:00,
2013-01-09 11:52:00,48.0,45.0,-100.00,SW,225,17.0,24.0,91,-99.99,,,-99.99,,2013-01-09 16:52:00,
2013-01-09 12:03:00,48.0,45.0,-100.00,SW,235,12.0,29.0,89,-99.99,,,-99.99,,2013-01-09 17:03:00,
2013-01-09 12:12:00,48.0,44.0,-100.00,SW,225,16.0,23.0,87,-99.99,,,-99.99,,2013-01-09 17:12:00,
2013-01-09 12:23:00,48.0,44.0,-100.00,SW,235,19.0,28.0,86,-99.99,,,-99.99,,2013-01-09 17:23:00,
2013-01-09 12:33:00,48.0,44.0,-100.00,SW,225,11.0,27.0,85,-99.99,,,-99.99,,2013-01-09 17:33:00,
2013-01-09 12:43:00,48.0,43.0,-100.00,SW,235,13.0,29.0,83,-99.99,,,-99.99,,2013-01-09 17:43:00,
2013-01-09 12:53:00,48.0,43.0,-100.00,SW,225,14.0,27.0,83,-99.99,,,-99.99,,2013-01-09 17:53:00,
2013-01-09 13:03:00,48.0,43.0,-100.00,WSW,240,17.0,26.0,82,-99.99,,,-99.99,,2013-01-09 18:03:00,
2013-01-09 13:12:00,48.0,43.0,-100.00,SW,215,13.0,24.0,81,-99.99,,,-99.99,,2013-01-09 18:12:00,
2013-01-09 13:24:00,48.0,43.0,-100.00,SW,220,12.0,24.0,80,-99.99,,,-99.99,,2013-01-09 18:24:00,
2013-01-09 13:33:00,49.0,43.0,-100.00,SSW,205,12.0,20.0,79,-99.99,,,-99.99,,2013-01-09 18:33:00,
2013-01-09 13:43:00,48.0,42.0,-100.00,SSW,205,16.0,25.0,78,-99.99,,,-99.99,,2013-01-09 18:43:00,
2013-01-09 13:53:00,49.0,42.0,-100.00,SW,230,11.0,29.0,77,-99.99,,,-99.99,,2013-01-09 18:53:00,
2013-01-09 14:03:00,49.0,42.0,-100.00,SSW,210,11.0,20.0,76,-99.99,,,-99.99,,2013-01-09 19:03:00,
2013-01-09 14:13:00,49.0,42.0,-100.00,SW,230,9.0,16.0,75,-99.99,,,-99.99,,2013-01-09 19:13:00,
2013-01-09 14:23:00,49.0,41.0,-100.00,SSW,210,12.0,21.0,72,-99.99,,,-99.99,,2013-01-09 19:23:00,
2013-01-09 14:33:00,49.0,39.0,-100.00,SW,230,15.0,23.0,70,-99.99,,,-99.99,,2013-01-09 19:33:00,
2013-01-09 14:43:00,49.0,40.0,-100.00,SW,225,14.0,24.0,70,-99.99,,,-99.99,,2013-01-09 19:43:00,
2013-01-09 14:52:00,49.0,39.0,-100.00,WSW,250,11.0,24.0,70,-99.99,,,-99.99,,2013-01-09 19:52:00,
2013-01-09 15:03:00,49.0,39.0,-100.00,SW,230,11.0,18.0,69,-99.99,,,-99.99,,2013-01-09 20:03:00,
2013-01-09 15:12:00,49.0,39.0,-100.00,SW,225,10.0,22.0,68,-99.99,,,-99.99,,2013-01-09 20:12:00,
2013-01-09 15:23:00,49.0,38.0,-100.00,SW,225,15.0,23.0,68,-99.99,,,-99.99,,2013-01-09 20:23:00,
2013-01-09 15:33:00,48.0,38.0,-100.00,SW,235,12.0,21.0,67,-99.99,,,-99.99,,2013-01-09 20:33:00,
2013-01-09 15:43:00,48.0,38.0,-100.00,SW,235,19.0,26.0,68,-99.99,,,-99.99,,2013-01-09 20:43:00,
2013-01-09 15:53:00,48.0,38.0,-100.00,SSW,210,12.0,22.0,68,-99.99,,,-99.99,,2013-01-09 20:53:00,
2013-01-09 16:03:00,48.0,38.0,-100.00,SW,235,11.0,22.0,69,-99.99,,,-99.99,,2013-01-09 21:03:00,
2013-01-09 16:13:00,48.0,38.0,-100.00,SW,225,14.0,22.0,70,-99.99,,,-99.99,,2013-01-09 21:13:00,
2013-01-09 16:23:00,47.0,38.0,-100.00,SW,225,13.0,21.0,70,-99.99,,,-99.99,,2013-01-09 21:23:00,
2013-01-09 16:33:00,47.0,38.0,-100.00,WSW,245,9.0,21.0,70,-99.99,,,-99.99,,2013-01-09 21:33:00,
2013-01-09 16:43:00,47.0,38.0,-100.00,SW,215,7.0,16.0,71,-99.99,,,-99.99,,2013-01-09 21:43:00,
2013-01-09 16:52:00,46.0,38.0,-100.00,SW,225,11.0,16.0,72,-99.99,,,-99.99,,2013-01-09 21:52:00,
2013-01-09 17:03:00,46.0,38.0,-100.00,SW,230,10.0,19.0,74,-99.99,,,-99.99,,2013-01-09 22:03:00,
2013-01-09 17:12:00,46.0,38.0,-100.00,SW,220,11.0,16.0,75,-99.99,,,-99.99,,2013-01-09 22:12:00,
2013-01-09 17:23:00,45.0,38.0,-100.00,SW,235,7.0,17.0,75,-99.99,,,-99.99,,2013-01-09 22:23:00,
2013-01-09 17:33:00,45.0,38.0,-100.00,SW,235,7.0,17.0,75,-99.99,,,-99.99,,2013-01-09 22:33:00,
2013-01-09 17:43:00,44.0,38.0,-100.00,WSW,250,9.0,16.0,77,-99.99,,,-99.99,,2013-01-09 22:43:00,
2013-01-09 17:52:00,44.0,37.0,-100.00,SW,215,6.0,12.0,77,-99.99,,,-99.99,,2013-01-09 22:52:00,
2013-01-09 18:03:00,44.0,37.0,-100.00,WSW,240,6.0,11.0,77,-99.99,,,-99.99,,2013-01-09 23:03:00,
2013-01-09 18:13:00,44.0,37.0,-100.00,SW,220,5.0,11.0,78,-99.99,,,-99.99,,2013-01-09 23:13:00,
2013-01-09 18:22:00,43.0,37.0,-100.00,SSW,210,8.0,15.0,78,-99.99,,,-99.99,,2013-01-09 23:22:00,
2013-01-09 18:33:00,43.0,37.0,-100.00,SW,230,8.0,12.0,79,-99.99,,,-99.99,,2013-01-09 23:33:00,
2013-01-09 18:43:00,43.0,37.0,-100.00,SSW,210,7.0,12.0,80,-99.99,,,-99.99,,2013-01-09 23:43:00,
2013-01-09 18:52:00,42.0,37.0,-100.00,WSW,240,5.0,15.0,81,-99.99,,,-99.99,,2013-01-09 23:52:00,
2013-01-09 19:03:00,42.0,37.0,-100.00,SW,220,7.0,11.0,82,-99.99,,,-99.99,,2013-01-10 00:03:00,
2013-01-09 19:12:00,42.0,37.0,-100.00,SW,235,9.0,14.0,83,-99.99,,,-99.99,,2013-01-10 00:12:00,
2013-01-09 19:22:00,42.0,37.0,-100.00,SW,220,9.0,14.0,83,-99.99,,,-99.99,,2013-01-10 00:22:00,
2013-01-09 19:32:00,42.0,37.0,-100.00,SW,235,6.0,10.0,84,-99.99,,,-99.99,,2013-01-10 00:32:00,
2013-01-09 19:42:00,41.0,37.0,-100.00,West,260,6.0,13.0,85,-99.99,,,-99.99,,2013-01-10 00:42:00,
2013-01-09 19:52:00,41.0,37.0,-100.00,SW,225,6.0,12.0,85,-99.99,,,-99.99,,2013-01-10 00:52:00,
2013-01-09 20:02:00,41.0,37.0,-100.00,WSW,240,7.0,12.0,86,-99.99,,,-99.99,,2013-01-10 01:02:00,
2013-01-09 20:12:00,41.0,37.0,-100.00,WSW,245,7.0,12.0,86,-99.99,,,-99.99,,2013-01-10 01:12:00,
2013-01-09 20:22:00,41.0,37.0,-100.00,WSW,240,6.0,11.0,86,-99.99,,,-99.99,,2013-01-10 01:22:00,
2013-01-09 20:33:00,40.0,37.0,-100.00,West,280,4.0,10.0,86,-99.99,,,-99.99,,2013-01-10 01:33:00,
2013-01-09 20:43:00,40.0,37.0,-100.00,SW,230,6.0,9.0,87,-99.99,,,-99.99,,2013-01-10 01:43:00,
2013-01-09 20:52:00,40.0,37.0,-100.00,WSW,245,5.0,9.0,87,-99.99,,,-99.99,,2013-01-10 01:52:00,
2013-01-09 21:03:00,40.0,37.0,-100.00,SW,230,7.0,11.0,87,-99.99,,,-99.99,,2013-01-10 02:03:00,
2013-01-09 21:12:00,40.0,37.0,-100.00,SW,230,5.0,11.0,87,-99.99,,,-99.99,,2013-01-10 02:12:00,
2013-01-09 21:22:00,40.0,36.0,-100.00,WSW,245,6.0,9.0,87,-99.99,,,-99.99,,2013-01-10 02:22:00,
2013-01-09 21:32:00,40.0,37.0,-100.00,WSW,240,4.0,11.0,88,-99.99,,,-99.99,,2013-01-10 02:32:00,
2013-01-09 21:42:00,40.0,37.0,-100.00,WSW,240,4.0,11.0,88,-99.99,,,-99.99,,2013-01-10 02:42:00,
2013-01-09 21:52:00,40.0,37.0,-100.00,WSW,240,4.0,11.0,88,-99.99,,,-99.99,,2013-01-10 02:52:00,
2013-01-09 22:03:00,39.0,36.0,-100.00,WSW,240,4.0,8.0,89,-99.99,,,-99.99,,2013-01-10 03:03:00,
2013-01-09 22:12:00,39.0,36.0,-100.00,WSW,245,4.0,7.0,89,-99.99,,,-99.99,,2013-01-10 03:12:00,
2013-01-09 22:22:00,39.0,36.0,-100.00,WSW,240,7.0,11.0,89,-99.99,,,-99.99,,2013-01-10 03:22:00,
2013-01-09 22:33:00,39.0,36.0,-100.00,WSW,245,6.0,9.0,89,-99.99,,,-99.99,,2013-01-10 03:33:00,
2013-01-09 22:42:00,39.0,36.0,-100.00,SW,230,7.0,9.0,89,-99.99,,,-99.99,,2013-01-10 03:42:00,
2013-01-09 22:52:00,38.0,36.0,-100.00,WSW,250,5.0,9.0,90,-99.99,,,-99.99,,2013-01-10 03:52:00,
2013-01-09 23:02:00,38.0,36.0,-100.00,WSW,240,6.0,9.0,90,-99.99,,,-99.99,,2013-01-10 04:02:00,
2013-01-09 23:12:00,38.0,36.0,-100.00,WSW,245,8.0,11.0,91,-99.99,,,-99.99,,2013-01-10 04:12:00,
2013-01-09 23:22:00,38.0,36.0,-100.00,SW,230,6.0,12.0,91,-99.99,,,-99.99,,2013-01-10 04:22:00,
2013-01-09 23:32:00,38.0,36.0,-100.00,WSW,255,5.0,8.0,91,-99.99,,,-99.99,,2013-01-10 04:32:00,
2013-01-09 23:42:00,38.0,36.0,-100.00,WSW,245,7.0,10.0,91,-99.99,,,-99.99,,2013-01-10 04:42:00,
2013-01-09 23:52:00,38.0,36.0,-100.00,WSW,250,7.0,12.0,92,-99.99,,,-99.99,,2013-01-10 04:52:00,